Total_Precipitation_Accumulation
1.16 1.11 1.04 0.97 0.92 0.89 0.86 0.82 0.78 0.73 0.65 0.60 0.53 0.46 0.43 0.37 0.33 0.28 0.23 0.22 0.22 0.28 0.43 0.67 0.94 1.18 1.38 1.55 1.66 1.56 1.51 1.38 1.13 0.98 0.97 1.06 1.11 1.18 1.20 1.28 1.28 1.18 1.18
1.14 1.10 1.06 1.00 0.93 0.89 0.88 0.84 0.78 0.73 0.64 0.57 0.51 0.47 0.45 0.42 0.39 0.35 0.30 0.29 0.27 0.28 0.36 0.52 0.74 1.06 1.34 1.52 1.71 1.82 1.69 1.65 1.51 1.23 1.06 1.05 1.09 1.15 1.19 1.27 1.34 1.33 1.27
1.13 1.14 1.12 1.04 0.93 0.87 0.85 0.85 0.85 0.85 0.78 0.68 0.59 0.53 0.47 0.43 0.39 0.36 0.35 0.34 0.33 0.33 0.35 0.45 0.57 0.81 1.16 1.47 1.67 1.90 1.94 1.79 1.80 1.68 1.42 1.21 1.16 1.17 1.23 1.30 1.36 1.44 1.40
1.20 1.20 1.17 1.10 1.00 0.95 0.89 0.82 0.80 0.81 0.80 0.75 0.70 0.65 0.58 0.50 0.42 0.36 0.33 0.33 0.37 0.38 0.37 0.41 0.49 0.63 0.93 1.30 1.66 1.91 2.28 2.14 2.00 2.06 2.01 1.67 1.40 1.31 1.34 1.41 1.46 1.54 1.58
1.24 1.23 1.20 1.14 1.08 1.06 1.00 0.91 0.83 0.75 0.71 0.69 0.66 0.64 0.60 0.57 0.54 0.51 0.43 0.36 0.33 0.38 0.42 0.44 0.47 0.52 0.69 1.03 1.42 1.80 2.31 2.66 2.47 2.37 2.42 2.32 1.95 1.67 1.57 1.60 1.66 1.71 1.79
1.33 1.27 1.22 1.17 1.14 1.10 1.05 0.98 0.90 0.80 0.70 0.66 0.67 0.65 0.59 0.54 0.52 0.49 0.47 0.42 0.36 0.35 0.43 0.49 0.52 0.49 0.53 0.70 1.02 1.50 2.01 2.56 2.83 2.73 2.66 2.71 2.57 2.27 2.04 1.92 1.89 1.97 2.04
1.51 1.43 1.34 1.28 1.24 1.17 1.06 0.98 0.94 0.92 0.86 0.81 0.85 0.79 0.68 0.57 0.53 0.50 0.47 0.45 0.40 0.36 0.38 0.48 0.55 0.52 0.47 0.52 0.65 0.93 1.47 2.19 2.81 3.07 3.04 2.94 2.93 2.75 2.49 2.28 2.14 2.19 2.30
1.67 1.57 1.42 1.37 1.32 1.26 1.18 1.07 1.00 0.98 0.92 0.90 0.96 1.01 0.89 0.75 0.60 0.48 0.46 0.44 0.40 0.40 0.41 0.43 0.51 0.56 0.53 0.48 0.45 0.57 0.87 1.51 2.32 2.98 3.32 3.38 3.32 3.26 2.99 2.70 2.50 2.46 2.55
1.64 1.56 1.42 1.35 1.35 1.33 1.25 1.15 1.07 1.02 0.96 0.85 0.83 1.06 1.09 0.82 0.57 0.46 0.44 0.45 0.44 0.45 0.44 0.44 0.47 0.53 0.58 0.57 0.51 0.52 0.61 0.96 1.66 2.51 3.14 3.49 3.64 3.80 3.69 3.24 2.95 2.81 2.82
1.56 1.51 1.49 1.42 1.31 1.26 1.19 1.13 1.09 1.04 1.01 0.96 0.89 0.86 0.90 0.85 0.82 0.61 0.43 0.42 0.45 0.49 0.51 0.50 0.51 0.55 0.60 0.65 0.65 0.66 0.68 0.76 1.20 1.85 2.64 3.31 3.73 4.06 4.31 3.91 3.40 3.16 3.09
1.59 1.55 1.50 1.49 1.42 1.31 1.22 1.17 1.15 1.12 1.08 1.02 0.94 0.85 0.81 0.74 0.74 0.82 0.61 0.44 0.46 0.47 0.50 0.55 0.56 0.58 0.61 0.66 0.70 0.72 0.81 0.81 1.04 1.47 2.03 2.84 3.55 4.19 4.73 4.58 3.86 3.36 3.19
1.59 1.47 1.42 1.39 1.36 1.28 1.18 1.15 1.15 1.17 1.16 1.07 0.98 0.89 0.89 0.87 0.76 0.81 0.75 0.55 0.52 0.49 0.51 0.56 0.61 0.63 0.63 0.67 0.69 0.80 0.85 0.90 1.00 1.23 1.54 2.09 2.85 3.59 4.47 4.83 4.30 3.63 3.26
1.54 1.44 1.32 1.24 1.19 1.16 1.14 1.11 1.12 1.10 1.10 1.13 1.09 0.98 0.91 0.84 0.80 0.87 0.94 0.80 0.70 0.60 0.58 0.60 0.60 0.67 0.71 0.72 0.73 0.81 0.82 0.91 1.03 1.16 1.29 1.52 2.00 2.78 3.71 4.69 4.94 4.26 3.66
1.40 1.38 1.35 1.26 1.13 1.07 1.08 1.11 1.11 1.08 1.09 1.12 1.08 1.03 0.97 0.85 0.86 0.96 1.06 1.17 1.11 0.81 0.69 0.64 0.60 0.64 0.71 0.78 0.80 0.86 0.78 0.91 1.02 1.13 1.23 1.32 1.50 1.98 2.84 3.89 4.91 4.99 4.30
1.38 1.40 1.38 1.35 1.28 1.18 1.09 1.09 1.09 1.07 1.11 1.11 1.11 1.09 1.08 0.98 0.94 0.96 1.02 1.20 1.50 1.32 0.82 0.61 0.60 0.64 0.71 0.81 0.90 0.87 0.82 0.89 0.98 1.11 1.24 1.33 1.41 1.63 2.04 2.72 3.66 4.67 4.90
1.30 1.40 1.44 1.39 1.40 1.37 1.28 1.18 1.11 1.08 1.14 1.15 1.18 1.20 1.17 1.13 1.12 1.07 1.08 1.13 1.30 1.45 1.12 0.59 0.53 0.59 0.73 0.85 1.00 1.00 0.99 1.08 1.05 1.12 1.21 1.29 1.33 1.45 1.67 2.06 2.66 3.58 4.52
1.19 1.27 1.37 1.38 1.39 1.41 1.37 1.32 1.24 1.18 1.17 1.17 1.22 1.29 1.26 1.22 1.28 1.23 1.16 1.13 1.16 1.30 1.32 0.73 0.53 0.56 0.78 0.99 1.05 1.08 1.12 1.08 1.03 1.11 1.17 1.25 1.30 1.38 1.55 1.79 2.13 2.71 3.60
1.20 1.22 1.34 1.46 1.44 1.42 1.38 1.37 1.34 1.34 1.37 1.33 1.26 1.28 1.31 1.31 1.34 1.32 1.31 1.23 1.13 1.10 1.22 1.02 0.70 0.69 0.83 1.01 1.08 1.13 1.20 1.18 1.10 1.17 1.21 1.30 1.38 1.46 1.58 1.71 1.91 2.19 2.81
1.29 1.25 1.31 1.45 1.51 1.50 1.45 1.36 1.36 1.40 1.48 1.55 1.52 1.49 1.43 1.42 1.43 1.37 1.38 1.33 1.22 1.12 1.12 1.15 0.92 0.80 0.86 0.98 1.12 1.21 1.25 1.24 1.24 1.30 1.26 1.29 1.42 1.53 1.61 1.66 1.77 1.96 2.22
1.33 1.32 1.30 1.35 1.47 1.56 1.61 1.60 1.61 1.56 1.56 1.59 1.61 1.63 1.60 1.59 1.54 1.49 1.50 1.45 1.41 1.42 1.36 1.35 1.19 1.00 0.96 0.99 1.19 1.39 1.49 1.35 1.32 1.32 1.36 1.33 1.43 1.51 1.57 1.56 1.52 1.66 1.90
1.40 1.36 1.34 1.30 1.35 1.61 1.95 1.91 1.80 1.73 1.60 1.52 1.46 1.47 1.55 1.71 1.78 1.83 1.86 1.75 1.73 1.84 1.80 1.71 1.50 1.30 1.17 1.21 1.33 1.42 1.65 1.61 1.51 1.43 1.45 1.38 1.38 1.36 1.38 1.45 1.51 1.63 1.80
1.50 1.42 1.37 1.33 1.35 1.56 2.05 2.11 1.78 1.54 1.40 1.38 1.37 1.28 1.28 1.49 1.59 1.74 1.89 1.89 1.95 2.12 2.21 2.13 1.84 1.58 1.30 1.25 1.37 1.60 1.82 2.01 1.93 1.53 1.55 1.59 1.52 1.54 1.43 1.39 1.52 1.60 1.74
1.53 1.47 1.37 1.30 1.26 1.35 1.79 1.89 1.68 1.36 1.22 1.19 1.22 1.21 1.18 1.20 1.34 1.30 1.49 1.62 1.66 1.84 2.08 2.19 2.15 1.70 1.43 1.33 1.62 1.83 1.88 2.01 1.90 1.66 1.75 1.98 1.79 1.71 1.57 1.52 1.56 1.48 1.58
1.56 1.48 1.38 1.31 1.27 1.24 1.60 1.77 1.64 1.27 1.11 1.04 1.03 1.02 1.03 1.06 1.17 1.34 1.44 1.45 1.38 1.46 1.74 1.94 2.11 1.92 1.70 1.66 1.92 2.22 2.35 2.36 2.15 1.93 1.90 2.27 2.07 1.91 1.80 1.67 1.58 1.43 1.47
1.48 1.45 1.36 1.24 1.20 1.19 1.41 1.72 1.70 1.31 1.15 1.01 0.97 0.96 0.93 0.93 1.23 1.48 1.44 1.37 1.24 1.24 1.42 1.71 1.93 2.03 2.10 2.22 2.39 2.69 2.87 2.84 2.67 2.28 2.05 2.24 2.27 2.17 2.03 1.91 1.71 1.52 1.41
1.40 1.41 1.37 1.25 1.16 1.11 1.30 1.67 1.85 1.40 1.20 1.07 0.99 0.95 1.06 1.11 1.34 1.44 1.35 1.40 1.43 1.27 1.20 1.27 1.38 1.50 1.58 1.76 2.12 2.40 2.66 2.83 2.78 2.70 2.23 2.20 2.33 2.39 2.62 2.20 1.78 1.45 1.30